Port Isabel, TX

9:34 PM CDT on April 27, 2017 (GMT -0500)
Port Isabel-Cameron County

Weather History for KPIL - February, 2013

Change the Weather History Date:

Sunday, February 24, 2013

  Actual Average (KBRO) Record (KBRO)
Temperature  
Mean Temperature 70 °F -  
Max Temperature 75 °F 73 °F 92 °F (1917)
Min Temperature 64 °F 54 °F 32 °F (1968)
Cooling Degree Days 4    
Growing Degree Days 20 (Base 50)    
Moisture  
Dew Point 64 °F    
Average Humidity 79    
Maximum Humidity 90    
Minimum Humidity 71    
Precipitation  
Precipitation 0.00 in - - ()
Sea Level Pressure  
Sea Level Pressure 29.75 in    
Wind  
Wind Speed 9 mph (ESE)    
Max Wind Speed 15 mph    
Max Gust Speed 20 mph    
Visibility 7 miles    
Events      
Averages and records for this station are not official NWS values.
T = Trace of Precipitation, MM = Missing Value Source: NWS Daily Summary

Daily Weather History Graph

Daily Weather History Graph

Search for Another Location

Airport or City:

Trip Planner

Search our weather history database for the weather conditions in past years. The results will help you decide how hot, cold, wet, or windy it might be!

Date:

Astronomy

Feb. 24, 2013 Rise Set
Actual Time 6:57 AM CST 6:28 PM CST
Civil Twilight 6:33 AM CST 6:51 PM CST
Nautical Twilight 6:07 AM CST 7:18 PM CST
Astronomical Twilight 5:40 AM CST 7:45 PM CST
Moon 5:40 PM CST (2/24) 5:53 AM CST (2/24)
Length of Visible Light 12h 17m
Length of Day
11h 30m
Waxing Gibbous, 99% of the Moon is Illuminated
Feb 24
Waxing Gibbous
Feb 25
Full
Mar 4
Last Quarter
Mar 11
New
Mar 19
First Quarter

Hourly Weather History & Observations

Time (CST) Temp. Dew Point Humidity Pressure Visibility Wind Dir Wind Speed Gust Speed Precip Events Conditions
12:53 AM 64.9 °F 60.1 °F 84% 29.90 in 8.0 mi East 4.6 mph - N/A   Overcast
1:53 AM 66.0 °F 59.0 °F 78% 29.88 in 8.0 mi East 9.2 mph - N/A   Overcast
2:53 AM 66.9 °F 59.0 °F 76% 29.86 in 9.0 mi ESE 10.4 mph - N/A   Overcast
3:53 AM 66.9 °F 59.0 °F 76% 29.84 in 9.0 mi ESE 6.9 mph - N/A   Overcast
4:53 AM 66.9 °F 60.1 °F 79% 29.83 in 9.0 mi East 5.8 mph - N/A   Overcast
5:53 AM 68.0 °F 61.0 °F 78% 29.82 in 9.0 mi ENE 5.8 mph - N/A   Overcast
6:53 AM 68.0 °F 61.0 °F 78% 29.82 in 9.0 mi ENE 5.8 mph - N/A   Overcast
7:53 AM 68.0 °F 62.1 °F 81% 29.82 in 7.0 mi ENE 10.4 mph - N/A   Overcast
8:21 AM 69.8 °F 62.6 °F 78% 29.81 in 7.0 mi East 11.5 mph - N/A   Scattered Clouds
8:37 AM 69.8 °F 62.6 °F 78% 29.82 in 7.0 mi East 15.0 mph - N/A   Mostly Cloudy
8:53 AM 70.0 °F 63.0 °F 78% 29.81 in 7.0 mi East 11.5 mph - N/A   Mostly Cloudy
9:00 AM 71.6 °F 64.4 °F 78% 29.82 in 7.0 mi East 13.8 mph - N/A   Partly Cloudy
9:42 AM 71.6 °F 64.4 °F 78% 29.83 in 8.0 mi ESE 13.8 mph 19.6 mph N/A   Mostly Cloudy
9:53 AM 73.9 °F 64.0 °F 71% 29.83 in 8.0 mi East 12.7 mph - N/A   Mostly Cloudy
10:14 AM 71.6 °F 64.4 °F 78% 29.84 in 8.0 mi East 8.1 mph - N/A   Overcast
10:53 AM 73.0 °F 64.9 °F 76% 29.82 in 7.0 mi ESE 10.4 mph - N/A   Overcast
11:53 AM 73.9 °F 66.0 °F 76% 29.80 in 7.0 mi East 12.7 mph - N/A   Mostly Cloudy
12:13 PM 75.2 °F 66.2 °F 73% 29.78 in 7.0 mi East 12.7 mph - N/A   Mostly Cloudy
12:23 PM 75.2 °F 66.2 °F 73% 29.77 in 8.0 mi East 15.0 mph - N/A   Mostly Cloudy
12:53 PM 73.9 °F 66.0 °F 76% 29.75 in 7.0 mi East 12.7 mph - N/A   Overcast
1:06 PM 73.4 °F 66.2 °F 78% 29.75 in 7.0 mi East 11.5 mph - N/A   Overcast
1:39 PM 75.2 °F 66.2 °F 73% 29.73 in 7.0 mi ESE 12.7 mph - N/A   Mostly Cloudy
1:53 PM 73.0 °F 66.0 °F 79% 29.72 in 7.0 mi East 12.7 mph - N/A   Overcast
2:23 PM 73.4 °F 66.2 °F 78% 29.69 in 7.0 mi East 12.7 mph - 0.00 in   Mostly Cloudy
2:53 PM 75.0 °F 68.0 °F 79% 29.68 in 7.0 mi East 9.2 mph - 0.00 in   Mostly Cloudy
3:53 PM 75.0 °F 68.0 °F 79% 29.66 in 7.0 mi East 12.7 mph - N/A   Scattered Clouds
4:53 PM 73.0 °F 66.9 °F 81% 29.65 in 6.0 mi ESE 9.2 mph - N/A   Haze
5:53 PM 75.0 °F 66.9 °F 76% 29.64 in 7.0 mi ESE 10.4 mph - N/A   Clear
6:53 PM 73.9 °F 66.0 °F 76% 29.66 in 8.0 mi SSE 6.9 mph - N/A   Clear
7:53 PM 73.0 °F 66.0 °F 79% 29.67 in 8.0 mi South 6.9 mph - N/A   Clear
8:53 PM 70.0 °F 64.9 °F 84% 29.66 in 7.0 mi SSE 6.9 mph - N/A   Clear
9:53 PM 69.1 °F 64.9 °F 87% 29.65 in 7.0 mi SE 8.1 mph - N/A   Clear
10:53 PM 70.0 °F 66.9 °F 90% 29.64 in 7.0 mi SSE 9.2 mph - N/A   Clear
11:29 PM 71.6 °F 66.2 °F 83% 29.63 in 6.0 mi SSE 10.4 mph - N/A   Partly Cloudy
11:41 PM 71.6 °F 68.0 °F 88% 29.63 in 6.0 mi SSE 11.5 mph - N/A   Mostly Cloudy
11:53 PM 72.0 °F 68.0 °F 87% 29.62 in 6.0 mi SSE 13.8 mph - N/A   Overcast